{"data":{"norad_id":53758,"epoch":"2026-05-25T03:38:20.499360Z","epoch_age_seconds":52044,"freshness":"FRESH","line1":"1 53758U 22108B   26145.15162615  .00000113  00000+0  60113-4 0  9995","line2":"2 53758  53.5285 148.1371 0007774 272.0402  87.9683 14.61899452198193","mean_motion":14.61899452,"eccentricity":0.0007774,"inclination_deg":53.5285,"raan_deg":148.1371,"arg_perigee_deg":272.0402,"mean_anomaly_deg":87.9683,"bstar":6.0113e-5,"rev_number":19819,"period_min":98.501986441678,"perigee_km":681.55499797484,"apogee_km":692.5399467925,"semimajor_km":7065.1844723837,"source":"CELESTRAK","updated_at":"2026-05-25T13:37:58.369913Z"}}